Wind_Speed
11 12 13 14 15 15 15 15 14 14 14 14 13 12 12 11 10 9 8 8 8 9 9 11 14 16 17 19 21 24 26 28 30 32 34 35 37 38 39 40 41 42 42
11 12 13 14 14 14 15 15 14 14 14 14 14 13 12 12 11 10 9 9 9 10 10 11 12 14 16 17 19 22 24 26 27 30 32 34 36 37 39 40 41 42 42
11 12 13 13 14 14 15 15 15 15 15 15 14 14 13 12 12 11 10 9 9 9 10 10 10 12 13 15 17 19 21 23 25 28 30 32 34 35 37 39 40 41 42
11 11 12 13 14 15 15 15 15 15 16 15 15 14 13 13 12 12 11 11 10 10 9 9 9 10 11 13 15 16 18 19 21 24 27 30 32 33 34 36 38 40 41
11 11 12 13 14 15 15 15 15 15 15 15 15 15 14 14 13 12 12 11 11 10 9 8 8 8 9 11 13 14 15 16 18 20 22 25 29 31 32 33 35 36 38
11 11 12 13 14 15 15 16 15 15 15 15 15 15 15 14 14 13 12 12 11 10 10 9 8 8 9 10 11 13 14 16 17 18 20 22 25 28 30 31 33 34 35
11 12 13 13 14 15 16 16 16 16 16 15 16 16 15 14 14 14 13 12 11 11 10 10 8 9 10 10 11 13 15 16 17 18 20 21 23 26 29 31 32 33 34
12 13 13 14 14 15 16 16 16 16 16 16 16 16 16 15 15 14 14 13 12 11 11 10 10 9 9 10 11 12 14 15 17 17 18 20 22 24 26 29 31 33 35
13 13 14 14 15 15 16 17 17 17 17 17 17 17 16 16 15 15 15 14 14 13 12 12 11 11 11 11 12 12 14 15 17 17 18 18 20 22 25 27 29 31 32
15 14 15 15 16 16 17 17 18 18 18 18 18 17 17 16 16 16 16 15 15 14 14 13 13 12 12 13 13 13 14 15 17 17 18 19 19 21 23 25 27 29 31
16 16 16 16 17 17 18 18 18 18 19 19 19 18 18 17 17 17 17 17 16 16 15 15 14 14 14 14 14 15 15 16 17 18 19 20 20 21 22 24 25 26 29
18 18 17 18 18 18 18 19 19 19 19 19 19 19 19 18 18 18 18 18 17 17 17 16 16 15 16 16 16 16 17 17 18 19 19 20 21 22 23 24 25 26 27
20 19 19 19 19 19 20 20 20 20 20 20 20 20 20 20 20 19 19 19 18 18 18 17 17 17 17 17 18 18 19 19 19 20 21 22 23 23 24 25 26 27 28
22 21 21 21 21 21 21 22 22 21 21 21 21 22 22 22 21 21 20 20 19 19 19 19 19 19 20 20 20 20 21 22 22 22 23 24 25 25 26 27 28 29 30
24 23 23 22 22 22 23 23 23 23 23 23 23 23 24 24 23 23 22 22 21 21 21 21 21 21 22 22 22 23 24 24 24 25 25 26 26 27 28 28 29 30 31
26 25 25 24 24 24 24 24 24 24 24 25 25 25 26 26 25 25 25 24 24 23 23 23 23 23 24 24 24 25 26 26 26 27 28 28 29 29 30 31 32 32 33
28 27 27 26 26 26 26 26 26 26 26 26 27 27 27 27 27 27 27 27 26 26 25 25 26 26 26 26 27 27 27 28 29 30 30 31 32 32 33 34 34 35 36
29 29 29 28 28 28 28 28 28 28 28 28 29 29 29 29 29 29 28 28 28 28 28 28 28 28 28 29 29 29 30 31 32 32 33 34 34 35 36 36 37 38 38
31 31 31 30 30 29 29 29 30 30 30 30 30 30 30 30 30 30 30 29 29 29 30 30 30 30 31 31 32 32 33 33 34 35 35 36 36 37 38 39 40 40 41
33 32 32 32 32 32 32 32 32 32 32 32 32 32 32 32 32 31 31 31 31 31 31 32 32 33 33 34 34 35 35 36 36 36 37 38 39 40 41 42 42 43 43
35 35 34 34 34 34 34 34 34 34 34 34 34 34 34 34 34 34 34 33 33 33 33 34 34 35 36 36 37 37 37 38 38 39 40 41 42 43 43 44 44 45 45
37 37 36 36 36 36 36 36 36 36 36 36 36 36 36 36 35 35 35 35 35 35 35 35 36 37 38 38 38 39 39 40 41 42 43 44 45 45 46 46 47 47 47
40 39 39 38 38 38 38 38 38 38 38 38 38 38 38 37 37 37 36 36 36 36 37 37 37 38 38 39 40 41 41 42 43 44 45 46 47 48 48 48 48 49 49
42 41 41 41 40 40 40 40 40 40 40 40 40 39 39 39 38 38 37 37 38 38 38 38 39 39 40 41 42 43 43 44 46 47 48 49 50 50 50 50 50 51 51
44 43 43 42 42 42 42 42 42 41 41 41 41 40 40 40 39 39 39 39 39 39 40 40 40 41 42 42 44 45 46 47 48 49 50 51 51 51 50 50 50 50 50
46 45 44 44 43 43 43 43 43 42 42 42 41 41 41 41 40 40 39 39 39 40 41 41 42 43 43 44 45 46 47 48 50 51 51 51 51 51 51 51 52 52 52
Wind_Direction
346 350 353 356 358 359 359 359 0 0 0 360 358 356 354 350 344 336 327 318 306 294 279 266 257 251 248 245 244 241 242 242 240 240 240 238 236 236 236 235 235 235 235
345 348 350 353 355 357 358 358 357 356 356 356 354 353 352 349 345 340 332 321 311 300 288 276 265 255 252 248 246 245 244 243 243 242 242 241 240 239 238 237 238 238 238
342 347 349 351 353 355 355 355 355 354 353 353 352 350 349 346 343 340 335 328 320 310 296 284 272 261 255 252 248 247 247 246 246 245 243 242 241 240 239 238 238 238 240
336 341 345 349 351 351 351 351 351 351 351 350 350 349 348 346 343 338 334 331 325 318 307 293 279 267 259 255 252 250 249 248 248 247 246 244 243 241 239 238 239 239 239
329 335 340 343 347 349 349 348 347 347 347 348 348 347 345 343 342 339 336 333 329 325 315 298 287 276 265 259 254 252 251 250 250 248 246 243 242 240 240 239 240 240 240
323 328 333 337 340 343 345 345 345 344 343 343 343 342 340 340 339 337 334 331 329 326 321 308 290 281 275 268 262 258 257 256 253 251 249 246 243 242 242 243 242 242 242
315 320 326 330 334 337 339 340 341 341 340 339 339 339 337 336 336 334 330 329 327 325 323 316 304 287 278 274 269 265 262 260 259 256 254 251 248 247 246 246 245 245 244
307 313 319 323 328 332 334 335 336 337 337 336 335 335 334 333 332 331 328 324 323 322 320 316 307 297 288 283 277 273 270 266 263 261 258 254 253 252 252 250 248 247 247
299 306 312 317 322 326 329 331 332 332 332 333 332 332 330 329 327 327 325 320 318 316 313 310 306 300 293 290 287 282 276 271 269 264 262 259 256 254 253 252 250 249 249
293 299 305 310 315 320 325 327 328 328 327 328 329 328 328 326 324 323 322 319 314 312 309 306 303 298 294 290 287 286 282 277 274 269 266 265 262 258 255 254 253 252 251
287 292 298 304 309 314 319 323 324 324 324 324 325 325 325 323 323 321 318 316 313 309 306 303 299 296 294 292 289 287 285 282 279 276 272 269 267 264 261 258 257 257 255
281 286 292 297 303 308 313 317 319 320 321 321 322 322 321 320 319 318 317 315 312 308 304 301 298 296 293 291 290 289 287 285 282 279 277 274 272 268 266 264 261 260 259
277 281 286 292 297 302 306 310 314 315 316 318 318 318 318 317 315 314 313 312 310 307 304 301 298 296 294 292 291 288 288 287 284 281 279 277 276 273 270 268 266 264 262
274 278 282 287 292 297 301 305 308 310 311 313 314 314 315 314 313 312 310 308 306 304 302 300 298 297 294 292 290 289 288 288 286 284 282 280 278 276 273 271 270 268 266
271 275 279 283 288 292 297 301 304 306 307 309 310 311 312 311 310 309 309 307 304 302 300 299 297 296 294 293 291 289 288 288 286 285 283 281 280 278 276 274 272 271 269
269 272 276 280 285 289 293 297 300 302 304 306 307 308 309 308 307 307 306 304 303 301 299 298 297 296 295 294 293 291 289 288 287 286 284 283 282 280 279 278 277 275 273
268 271 274 278 282 286 290 293 296 298 300 302 303 304 305 305 304 304 303 302 300 299 297 296 296 296 295 294 293 292 291 289 288 287 285 284 283 282 281 280 279 278 276
266 269 272 276 280 284 287 291 293 296 298 299 300 301 302 302 302 302 301 300 298 297 296 295 294 294 294 294 293 293 292 291 290 288 286 285 284 283 282 281 280 280 279
265 268 271 274 278 282 285 289 292 294 296 297 299 300 301 301 301 300 300 299 298 297 296 295 294 293 293 293 293 293 293 292 291 290 288 287 285 284 283 282 281 280 279
264 267 270 273 277 280 283 286 290 292 294 296 298 299 300 300 300 300 299 299 298 297 295 295 294 294 293 293 293 293 293 293 292 290 289 288 287 287 285 284 283 281 280
264 266 269 272 276 279 282 285 288 290 292 294 296 297 298 298 298 299 298 298 297 297 296 295 295 294 294 294 294 294 293 293 291 291 290 289 288 288 286 285 284 282 281
264 267 270 273 276 278 280 283 286 289 290 292 294 296 296 297 297 297 297 296 296 296 296 295 295 295 294 294 294 294 294 293 292 292 291 291 290 289 288 286 285 283 281
263 266 269 272 275 278 280 283 285 287 289 291 293 294 295 296 296 296 296 296 296 296 296 296 296 296 295 295 295 295 294 294 294 293 293 293 292 291 290 288 286 284 282
262 265 268 270 273 276 279 282 284 286 288 290 291 293 294 295 295 295 295 295 295 296 296 296 296 296 296 296 296 296 296 296 295 295 295 294 294 292 291 289 287 286 284
261 264 267 270 272 275 278 281 283 285 287 289 290 292 293 294 294 294 294 294 295 295 295 296 296 296 296 297 297 297 297 297 297 297 296 296 295 294 292 290 289 287 285
260 263 266 269 272 275 278 280 282 284 286 288 289 291 292 293 293 293 293 294 294 295 295 296 296 296 297 298 299 299 299 299 299 299 298 297 296 295 293 291 289 287 286
Height
5816 5813 5810 5807 5803 5800 5797 5793 5790 5787 5784 5781 5778 5775 5773 5770 5768 5766 5764 5763 5762 5760 5760 5759 5759 5760 5762 5763 5765 5766 5768 5770 5772 5774 5776 5779 5783 5787 5790 5794 5798 5802 5806
5815 5812 5809 5806 5802 5799 5796 5793 5790 5786 5783 5780 5777 5774 5772 5769 5767 5764 5763 5761 5759 5757 5756 5755 5755 5755 5756 5757 5759 5760 5761 5763 5764 5766 5768 5771 5775 5778 5782 5785 5789 5793 5797
5813 5811 5808 5805 5802 5798 5795 5792 5789 5786 5782 5779 5776 5774 5771 5768 5765 5763 5761 5758 5756 5754 5752 5751 5751 5751 5752 5752 5753 5754 5755 5757 5758 5759 5761 5763 5766 5769 5773 5776 5780 5784 5788
5812 5809 5807 5804 5800 5797 5794 5791 5788 5785 5781 5778 5775 5772 5769 5767 5764 5761 5759 5756 5754 5752 5749 5748 5747 5747 5747 5748 5749 5749 5750 5751 5752 5753 5754 5756 5759 5761 5765 5768 5772 5775 5779
5810 5807 5805 5802 5799 5796 5793 5790 5787 5783 5780 5777 5774 5771 5768 5765 5762 5760 5757 5754 5752 5750 5747 5746 5744 5744 5744 5745 5745 5745 5746 5746 5747 5747 5748 5749 5752 5754 5757 5760 5763 5766 5770
5807 5805 5803 5800 5797 5794 5791 5788 5785 5782 5779 5776 5773 5770 5767 5764 5761 5758 5755 5753 5750 5748 5746 5744 5743 5742 5742 5742 5742 5742 5742 5742 5742 5742 5743 5744 5745 5748 5750 5752 5755 5758 5762
5805 5803 5800 5798 5795 5793 5790 5786 5783 5780 5777 5774 5771 5768 5765 5762 5759 5756 5754 5751 5749 5746 5744 5742 5741 5740 5739 5739 5739 5738 5738 5738 5738 5738 5738 5739 5740 5741 5743 5745 5747 5750 5753
5802 5800 5798 5795 5793 5790 5787 5784 5781 5778 5775 5772 5769 5766 5763 5760 5758 5755 5752 5749 5747 5745 5742 5740 5739 5738 5737 5736 5735 5735 5734 5734 5733 5733 5733 5734 5734 5735 5736 5738 5739 5742 5744
5798 5796 5794 5792 5790 5787 5785 5782 5779 5776 5773 5770 5767 5764 5761 5758 5755 5752 5749 5747 5744 5742 5740 5738 5737 5736 5734 5733 5732 5731 5730 5730 5729 5729 5728 5728 5728 5729 5729 5730 5732 5734 5736
5794 5793 5791 5789 5786 5784 5781 5778 5776 5773 5770 5767 5764 5761 5758 5755 5753 5750 5747 5744 5742 5740 5738 5736 5734 5733 5731 5730 5729 5727 5726 5726 5725 5724 5724 5723 5723 5723 5723 5724 5725 5726 5727
5789 5788 5786 5785 5782 5780 5778 5775 5772 5769 5766 5763 5761 5758 5755 5752 5749 5746 5744 5741 5738 5736 5734 5732 5731 5729 5728 5726 5725 5723 5722 5721 5720 5719 5719 5718 5718 5718 5718 5718 5718 5718 5719
5784 5783 5781 5780 5778 5776 5773 5771 5768 5765 5763 5760 5757 5754 5751 5748 5746 5743 5740 5737 5735 5732 5730 5728 5727 5725 5723 5722 5721 5719 5718 5716 5715 5714 5714 5713 5712 5712 5711 5711 5711 5711 5711
5778 5777 5776 5774 5773 5771 5769 5766 5764 5761 5758 5755 5753 5750 5747 5744 5742 5739 5736 5733 5731 5728 5726 5724 5722 5721 5719 5718 5716 5714 5713 5711 5710 5709 5708 5707 5706 5705 5704 5704 5703 5703 5703
5771 5771 5770 5768 5767 5765 5763 5761 5758 5756 5753 5751 5748 5745 5742 5739 5737 5734 5731 5729 5726 5724 5722 5719 5717 5715 5714 5712 5710 5709 5707 5705 5704 5703 5701 5700 5699 5698 5697 5696 5695 5695 5694
5764 5764 5763 5762 5760 5759 5757 5755 5752 5750 5748 5745 5742 5740 5737 5734 5731 5728 5726 5723 5721 5719 5716 5714 5712 5710 5708 5706 5704 5702 5700 5699 5697 5695 5694 5692 5691 5690 5688 5687 5686 5685 5685
5756 5756 5755 5754 5753 5752 5750 5748 5746 5744 5741 5739 5736 5734 5731 5728 5725 5722 5720 5717 5715 5712 5710 5708 5705 5703 5701 5699 5697 5695 5693 5691 5689 5687 5686 5684 5682 5681 5679 5678 5676 5675 5674
5748 5748 5747 5747 5746 5744 5743 5741 5739 5737 5734 5732 5729 5727 5724 5721 5718 5716 5713 5710 5708 5705 5703 5701 5698 5696 5694 5691 5689 5687 5685 5683 5680 5678 5676 5674 5673 5671 5669 5667 5666 5664 5663
5739 5739 5739 5738 5737 5736 5734 5733 5731 5729 5727 5724 5722 5719 5717 5714 5711 5708 5705 5703 5700 5698 5695 5693 5691 5688 5686 5683 5681 5678 5676 5673 5671 5669 5666 5664 5662 5660 5658 5656 5654 5652 5651
5729 5729 5729 5729 5728 5727 5726 5724 5722 5721 5718 5716 5714 5711 5708 5706 5703 5700 5697 5695 5692 5689 5687 5684 5682 5679 5677 5674 5672 5669 5666 5663 5661 5658 5655 5653 5650 5648 5646 5644 5641 5639 5637
5719 5719 5719 5719 5718 5717 5716 5715 5713 5711 5709 5707 5705 5702 5699 5697 5694 5691 5689 5686 5683 5680 5678 5675 5673 5670 5667 5664 5661 5659 5656 5653 5649 5646 5643 5641 5638 5635 5633 5630 5627 5625 5623
5708 5709 5709 5708 5708 5707 5706 5705 5703 5702 5700 5697 5695 5692 5690 5687 5685 5682 5679 5676 5673 5670 5668 5665 5662 5659 5656 5653 5650 5647 5644 5641 5637 5634 5631 5628 5625 5621 5618 5615 5612 5610 5608
5697 5697 5697 5697 5697 5696 5695 5694 5693 5691 5689 5687 5685 5682 5680 5677 5674 5672 5669 5666 5663 5660 5657 5654 5651 5648 5645 5642 5638 5635 5631 5628 5624 5621 5617 5613 5610 5606 5602 5599 5596 5593 5591
5685 5685 5685 5686 5685 5685 5684 5683 5682 5680 5678 5676 5674 5671 5669 5666 5663 5661 5658 5655 5652 5649 5646 5643 5640 5636 5633 5629 5625 5622 5618 5614 5610 5606 5602 5598 5593 5589 5585 5582 5578 5575 5573
5672 5672 5673 5673 5673 5673 5672 5671 5670 5668 5666 5664 5662 5660 5657 5655 5652 5649 5646 5643 5640 5637 5634 5631 5627 5624 5620 5616 5612 5608 5604 5599 5595 5590 5586 5581 5577 5572 5568 5564 5560 5557 5554
5658 5659 5660 5660 5660 5660 5659 5658 5657 5656 5654 5652 5650 5648 5645 5643 5640 5637 5634 5631 5628 5625 5622 5618 5615 5611 5607 5603 5598 5594 5589 5584 5579 5573 5569 5564 5559 5554 5549 5545 5541 5538 5535
5644 5645 5646 5647 5647 5647 5646 5645 5644 5643 5641 5640 5638 5635 5633 5630 5627 5625 5622 5619 5616 5612 5609 5605 5602 5598 5594 5589 5584 5579 5574 5569 5563 5556 5550 5545 5541 5536 5531 5527 5522 5518 5515